Location: Bettgenhausen
(50.6463°N, 7.5681°E)
Time: 06:13:04
(UTC+00:00)

Cosmos 2227 Rocket - Pass Details

Date: 27 February 2020
Orbit: 839 x 845 km, 71.0° (Epoch: 09 April)

Event Time Altitude Azimuth Distance (km) Brightness Sun altitude
Rises 18:12:21 0° 332° (NNW) 3,407 5.8 -11.2°
Reaches altitude 10° 18:15:07 10° 343° (NNW) 2,470 4.9 -11.6°
Maximum altitude 18:20:05 30° 45° (NE) 1,463 3.1 -12.4°
Enters shadow 18:23:20 18° 94° (E) 1,960 3.4 -12.9°
